Location: *
(48.4333°N, 5.0333°W)
Time: 01:57:45
(UTC+00:00)

Thor Agena Rocket - Pass Details

Date: 09 April 2020
Orbit: 760 x 807 km, 99.0° (Epoch: 29 May)

Event Time Altitude Azimuth Distance (km) Brightness Sun altitude
Rises 23:10:57 0° 13° (NNE) 3,242 7.5 -31.4°
Reaches altitude 10° 23:13:15 10° 11° (NNE) 2,316 6.6 -31.6°
Enters shadow 23:16:58 48° 356° (N) 1,002 4.3 -31.8°
